Location: Harmony
(28.2000°N, 81.1500°W)
Time: 11:53:43
(UTC-04:00)

Atlas Centaur 2 - Pass Details

Date: 18 December 2017
Orbit: 459 x 1312 km, 30.4° (Epoch: 22 July)

Event Time Altitude Azimuth Distance (km) Brightness Sun altitude
Rises 17:35:51 0° 282° (WNW) 3,735 6.5 -1.6°
Reaches altitude 10° 17:38:50 10° 282° (WNW) 2,639 5.7 -2.2°
Maximum altitude 17:45:05 80° 196° (SSW) 785 2.2 -3.4°
Drops below altitude 10° 17:49:55 10° 110° (ESE) 2,055 3.8 -4.4°
Enters shadow 17:52:41 -3° 108° (ESE) 3,120 4.7 -4.9°
Exits shadow 18:22:16 -66° 105° (ESE) 12,410 8.1 -11.0°
